OSSERVATORIO METEOROLOGICO COMUNALE "E. Torricelli" - Faenza (Italia)

Latitudine: 44° 17' 44.97" N - Longitudine: 11° 52' 33.27" E - Altitudine: 36 m s.l.m.

15 febbraio 2019

Temperatura
(°C)
Umidità
(%)
Pressione
(hPa)
Velocità vento
(km/h)
Pioggia Rad. Sol.
(W/m2)
Max Min Med Max Min Med Max Min Max Orario Dir.
Med.
Totale
(mm)
Intensità
(mm/h)
Max
14,2 1,5 7,1 75 33 57 1030 1028 19 17:05 173 - - 541

Orario Temperatura
(°C)
Umidità
(%)
Pressione
(hPa)
Velocità vento
(km/h)
Dir. vento
(°)
Pioggia
(mm)
Rad. Sol.
(W/m2)
0:00 4,5 60 1030,0 6 240 - -
0:15 4,4 60 1030,1 9 223 - -
0:30 4,6 60 1030,3 8 235 - -
0:45 4,5 59 1030,2 7 243 - -
1:00 4,6 59 1030,1 9 218 - -
1:15 4,8 58 1030,1 6 200 - -
1:30 4,7 57 1030,0 12 243 - -
1:45 4,7 57 1030,1 11 220 - -
2:00 4,7 56 1030,1 12 248 - -
2:15 4,5 56 1030,0 9 243 - -
2:30 4,2 58 1029,8 10 233 - -
2:45 4,2 59 1029,5 9 218 - -
3:00 4,0 58 1029,6 6 215 - -
3:15 3,7 59 1029,6 4 230 - -
3:30 3,4 61 1029,6 5 203 - -
3:45 3,3 61 1029,7 3 220 - -
4:00 3,5 60 1029,5 4 243 - -
4:15 3,4 61 1029,3 6 230 - -
4:30 3,2 61 1029,3 5 200 - -
4:45 3,0 62 1029,3 7 225 - -
5:00 2,8 64 1029,3 4 228 - -
5:15 2,5 65 1029,5 1 210 - -
5:30 2,2 66 1029,5 6 228 - -
5:45 2,2 66 1029,4 3 210 - -
6:00 2,3 67 1029,5 5 218 - -
6:15 2,2 67 1029,5 4 178 - -
6:30 1,9 68 1029,7 5 228 - -
6:45 2,0 68 1029,6 8 238 - -
7:00 1,8 68 1029,7 4 213 - -
7:15 1,7 71 1029,7 6 223 - 1,6
7:30 2,1 70 1029,7 3 253 - 13,6
7:45 2,2 68 1029,9 6 240 - 28,0
8:00 2,4 67 1029,9 4 220 - 63,4
8:15 2,9 66 1029,8 5 225 - 120,2
8:30 3,2 65 1029,9 1 218 - 120,8
8:45 3,8 64 1029,8 9 198 - 117,3
9:00 4,3 62 1029,8 1 240 - 81,9
9:15 5,0 61 1029,9 2 10 - 274,2
9:30 5,5 62 1029,9 2 53 - 309,3
9:45 6,4 57 1029,7 4 53 - 345,6
10:00 7,3 55 1029,8 4 10 - 357,9
10:15 7,8 52 1030,0 2 30 - 427,1
10:30 8,5 51 1029,8 2 345 - 433,8
10:45 9,2 50 1029,8 5 295 - 454,3
11:00 9,7 47 1029,7 4 8 - 476,7
11:15 11,1 45 1029,6 4 3 - 502,9
11:30 12,2 42 1029,6 6 233 - 501,6
11:45 12,8 40 1029,5 2 10 - 504,7
12:00 12,0 40 1029,3 5 18 - 535,5
12:15 13,2 40 1029,1 4 355 - 531,8
12:30 12,7 39 1028,9 6 75 - 529,5
12:45 13,5 37 1028,7 4 23 - 526,2
13:00 14,0 37 1028,5 3 358 - 513,5
13:15 13,6 36 1028,2 9 5 - 499,2
13:30 14,1 37 1027,9 6 8 - 492,3
13:45 13,9 35 1027,7 4 8 - 461,6
14:00 14,0 35 1027,8 5 355 - 449,8
14:15 13,8 34 1027,7 1 48 - 420,0
14:30 14,0 36 1027,8 7 13 - 391,8
14:45 14,0 35 1027,9 5 53 - 355,0
15:00 14,0 34 1027,9 3 48 - 325,4
15:15 14,0 35 1027,8 0 - - 291,4
15:30 13,8 35 1027,7 2 25 - 254,8
15:45 13,9 37 1027,7 2 138 - 217,4
16:00 14,0 37 1027,8 4 123 - 179,5
16:15 13,3 40 1027,9 4 133 - 142,6
16:30 12,8 42 1027,9 1 65 - 106,7
16:45 12,3 44 1027,9 4 133 - 43,2
17:00 11,8 49 1028,1 3 133 - 31,0
17:15 11,2 51 1028,3 4 93 - 17,6
17:30 10,5 53 1028,2 5 148 - 5,9
17:45 9,9 55 1028,4 4 118 - -
18:00 9,4 57 1028,5 3 108 - -
18:15 8,6 60 1028,5 3 143 - -
18:30 8,2 62 1028,5 3 125 - -
18:45 7,6 63 1028,7 4 130 - -
19:00 7,1 65 1028,5 1 123 - -
19:15 6,6 67 1028,5 3 125 - -
19:30 6,4 69 1028,8 2 158 - -
19:45 6,3 68 1028,9 4 208 - -
20:00 6,0 69 1028,9 2 180 - -
20:15 5,8 70 1028,8 1 18 - -
20:30 5,5 71 1029,1 3 235 - -
20:45 5,6 74 1029,0 1 245 - -
21:00 5,3 75 1029,2 2 263 - -
21:15 5,1 75 1029,4 6 200 - -
21:30 5,2 73 1029,3 4 225 - -
21:45 5,1 73 1029,3 5 240 - -
22:00 5,2 72 1029,5 10 265 - -
22:15 5,1 71 1029,4 4 208 - -
22:30 4,9 72 1029,2 3 328 - -
22:45 4,9 73 1029,2 4 285 - -
23:00 4,8 72 1029,3 3 258 - -
23:15 4,8 72 1029,5 2 198 - -
23:30 - - - - - - -
23:45 - - - - - - -
24:00 - - - - - - -